Wind_Speed
20 19 18 21 20 17 16 18 19 22 21 19 20 20 21 23 24 23 22 21 21 21 21 20 19 19 18 18 18 18 17 16 17 18 17 19 19 19 19 17 16 15 13
19 19 18 18 14 12 12 12 11 12 13 14 15 16 19 20 22 23 24 23 24 24 25 25 25 24 24 22 21 21 21 21 20 20 20 20 21 23 22 21 19 17 15
15 14 13 12 11 11 11 11 12 12 13 14 15 16 16 17 19 21 24 26 27 28 29 29 27 27 26 26 25 24 23 24 24 25 24 24 24 25 25 24 23 20 18
11 11 10 11 11 11 12 12 13 14 15 16 17 19 19 20 20 22 23 24 25 27 28 28 27 30 31 30 30 30 28 26 26 27 28 27 27 27 27 27 26 26 23
11 11 11 12 13 13 13 13 14 15 16 17 18 20 21 22 24 25 26 27 28 29 28 27 28 29 30 31 31 33 32 32 29 30 30 30 29 29 29 30 28 30 25
12 12 12 13 13 13 13 13 13 15 16 18 19 19 21 22 24 27 28 30 31 31 31 30 30 31 33 32 32 32 31 32 33 32 32 32 32 31 33 34 32 31 28
13 14 14 13 13 13 13 13 14 16 18 19 20 20 22 23 24 25 27 30 32 34 34 34 33 33 34 35 34 34 33 33 33 33 33 34 36 36 36 35 36 34 34
12 13 14 14 15 16 16 17 18 19 20 22 21 21 20 24 24 25 25 27 29 32 34 36 35 35 35 35 35 36 36 36 36 35 34 32 37 38 39 37 41 42 38
13 15 15 15 16 16 17 19 20 21 20 23 23 22 22 22 22 25 27 27 28 31 33 35 35 35 35 35 35 36 37 37 38 38 38 39 39 36 36 36 35 33 37
15 16 17 17 17 17 18 19 21 22 22 21 24 25 25 25 26 24 25 29 31 32 33 34 35 35 35 35 34 35 36 37 38 39 39 40 40 41 36 36 37 41 49
16 17 18 18 18 19 20 20 21 22 22 23 23 23 25 28 29 31 29 25 31 34 34 33 33 35 36 36 36 36 37 37 38 38 40 41 42 43 45 46 40 41 47
16 17 19 20 20 21 21 22 23 24 24 24 24 25 27 28 29 32 34 32 32 29 32 33 33 34 34 34 34 35 35 36 37 38 40 41 42 44 45 46 49 48 45
19 20 21 22 23 23 24 26 26 27 27 27 29 30 32 33 34 33 35 35 33 33 26 27 30 32 32 32 33 34 34 34 37 37 37 38 40 43 44 46 47 48 49
19 20 22 23 25 26 28 29 30 31 32 33 33 35 36 36 36 36 36 35 35 33 29 24 25 28 30 31 31 31 31 32 34 35 35 36 37 38 39 41 44 45 48
21 23 25 27 29 31 32 34 35 36 36 37 38 38 38 37 37 36 35 34 33 34 30 28 25 26 29 30 30 30 31 30 31 32 33 35 34 37 40 40 41 41 44
24 25 26 27 29 30 32 33 35 37 38 38 39 39 38 37 36 35 33 32 29 31 31 23 24 26 26 26 29 28 27 28 28 29 30 31 34 34 33 35 36 37 37
24 25 27 29 31 33 33 34 36 37 38 37 36 36 35 35 33 32 31 29 26 27 31 22 23 21 20 22 27 27 28 30 30 30 29 28 29 31 34 31 32 32 36
25 27 29 31 32 32 33 33 34 35 36 34 32 32 31 30 29 27 26 25 23 23 25 21 15 16 17 20 22 24 26 27 28 28 28 28 28 30 33 36 39 40 34
27 28 30 31 31 32 33 34 34 33 30 28 28 27 27 25 24 22 20 19 18 17 16 15 13 14 16 19 20 22 23 24 27 25 26 26 27 30 28 28 30 31 32
26 29 29 29 29 31 31 31 30 26 20 19 19 19 18 17 15 12 11 12 11 12 13 13 15 18 20 20 18 17 17 18 23 25 23 23 24 28 25 21 24 23 27
26 27 26 27 28 27 27 25 22 16 12 14 12 8 9 11 12 11 8 8 8 10 12 14 16 18 19 17 15 16 17 17 16 16 18 20 22 23 26 30 22 24 25
24 24 25 26 26 25 22 19 16 13 11 12 8 7 9 13 8 8 8 9 10 10 12 13 13 13 13 13 15 16 14 15 18 19 21 20 20 21 20 21 24 23 26
22 22 23 24 24 21 18 16 16 12 9 8 5 9 15 14 10 10 10 10 11 11 12 13 13 12 12 12 13 15 16 20 20 20 19 20 20 20 18 18 20 21 23
20 22 23 24 21 20 17 15 13 10 11 11 14 12 15 11 10 9 9 8 8 9 9 10 10 9 10 10 10 11 12 13 14 14 15 15 16 18 18 19 20 21 22
21 22 23 22 19 19 15 15 14 14 14 12 14 12 16 12 6 5 6 7 6 6 7 7 7 7 7 7 8 9 10 11 12 14 14 16 16 17 18 19 20 21 22
21 23 23 22 18 16 15 13 14 14 13 12 14 13 8 2 2 4 5 6 6 7 8 8 8 8 8 9 10 10 11 12 14 15 16 17 18 19 20 21 22 24 25
Wind_Direction
253 256 259 264 267 265 261 252 243 230 254 262 258 256 254 254 254 255 253 251 251 251 252 255 261 261 258 258 258 256 255 255 257 253 251 257 263 270 278 288 295 301 302
249 254 257 259 257 251 251 251 249 249 253 258 258 256 255 252 256 257 257 254 254 253 256 256 260 263 260 258 257 255 256 258 259 258 257 255 261 268 274 282 284 294 294
247 246 241 246 250 252 256 259 263 263 263 262 267 267 261 259 257 256 255 256 258 258 258 259 257 256 259 259 258 255 256 258 260 261 257 260 261 266 271 277 281 284 287
235 241 249 257 264 268 270 271 273 272 271 271 270 270 270 268 264 262 261 260 258 256 257 259 259 257 258 255 255 256 255 259 259 260 263 261 263 265 271 273 276 278 283
239 247 256 262 266 270 276 280 283 284 284 281 277 275 273 270 269 266 264 263 260 261 261 261 262 262 260 260 259 258 255 251 252 256 261 263 263 266 269 270 269 272 273
258 259 260 264 269 273 276 280 285 288 288 288 287 285 280 275 270 266 266 266 266 265 265 264 262 263 265 264 262 260 258 256 251 252 257 259 259 265 267 269 267 269 275
268 271 272 271 271 272 274 281 287 292 295 295 292 290 287 282 278 275 270 267 267 268 268 265 264 263 262 263 263 263 261 259 256 253 251 256 258 264 266 268 264 263 271
262 264 270 276 281 284 289 292 295 297 298 298 298 294 287 285 286 282 276 271 267 265 265 266 266 264 263 263 263 262 260 260 258 256 250 249 256 262 261 265 266 259 268
267 269 270 271 276 283 288 293 296 295 298 300 301 301 298 292 285 284 281 277 272 269 267 265 265 264 264 263 262 261 262 260 259 257 255 251 251 254 262 265 251 268 259
269 272 275 276 277 280 284 290 293 296 299 299 301 304 304 302 299 288 280 280 276 271 269 267 267 267 264 262 262 261 261 261 261 260 259 258 257 252 251 256 261 263 268
274 275 275 277 282 287 289 290 290 292 294 296 298 301 303 304 304 299 292 276 275 275 271 268 266 265 264 263 261 260 259 258 259 260 260 258 258 256 254 251 256 259 257
277 277 278 283 286 286 288 290 291 293 293 292 293 298 301 301 300 298 296 290 283 268 271 269 266 263 262 264 265 264 265 266 264 262 262 262 261 259 257 256 256 255 259
284 285 286 287 287 288 289 288 288 289 288 288 291 296 297 296 295 293 292 290 284 280 271 268 266 265 264 264 265 267 267 268 269 271 270 267 265 264 263 261 259 258 258
288 290 291 291 290 289 289 288 288 288 287 287 289 292 292 290 288 288 286 286 284 281 277 268 263 264 265 266 266 268 273 272 272 272 274 274 273 270 268 267 266 264 261
289 291 292 292 292 291 290 289 289 288 288 288 288 289 290 288 285 282 280 280 282 281 274 267 269 264 263 265 268 270 272 274 275 274 275 276 273 270 270 270 271 269 264
297 299 299 299 298 296 294 292 290 289 288 288 289 289 288 286 283 280 277 274 275 278 275 271 271 266 261 260 265 269 271 273 275 274 278 279 277 278 273 274 274 270 267
298 300 302 302 301 298 295 293 291 291 290 289 288 287 285 283 280 277 274 271 270 273 277 280 272 270 267 263 264 268 266 269 271 275 277 284 283 278 274 278 270 281 272
295 302 303 303 302 300 300 299 298 296 293 289 285 282 282 281 279 273 269 269 270 272 277 280 274 272 273 276 274 273 273 270 270 271 275 277 279 279 278 277 273 272 265
298 302 303 303 301 299 299 298 297 294 291 283 280 280 280 280 277 274 273 268 265 266 271 278 285 291 288 285 279 279 281 279 277 277 273 273 277 270 278 279 281 277 267
300 302 302 302 302 301 300 297 296 299 297 289 284 282 280 278 275 274 266 266 268 262 273 289 294 294 292 290 286 288 287 289 289 275 280 290 285 276 277 272 285 273 252
301 302 301 304 304 303 299 299 301 298 305 295 292 299 277 265 269 271 262 271 276 281 286 291 293 291 291 285 281 294 292 300 299 290 289 297 306 304 281 269 268 279 263
303 303 307 311 307 303 306 303 298 294 275 299 273 247 263 283 284 277 274 282 285 292 298 298 300 301 299 293 286 288 284 300 301 294 296 300 302 311 308 279 277 275 278
305 312 315 314 307 309 306 300 291 276 264 288 240 258 274 289 276 279 284 287 292 296 299 296 301 304 305 303 295 287 281 296 298 299 298 294 293 298 299 298 287 286 278
312 320 320 315 309 310 296 295 285 277 254 255 266 283 287 282 278 287 293 298 300 310 316 317 315 313 315 319 314 308 304 305 310 317 316 314 309 304 301 297 292 288 284
320 321 316 318 308 306 297 293 275 279 255 250 258 270 287 280 278 296 305 310 318 331 335 333 327 320 321 319 315 311 308 312 311 310 310 312 311 310 308 305 300 295 288
320 321 324 319 304 304 296 293 275 282 250 248 244 271 267 230 274 293 306 312 317 324 324 318 313 316 318 316 311 310 310 310 310 309 310 309 307 304 301 298 295 293 290
Height
3134 3135 3135 3135 3136 3136 3136 3136 3136 3137 3137 3137 3138 3138 3139 3139 3140 3141 3142 3142 3143 3143 3143 3144 3144 3145 3145 3145 3146 3146 3146 3147 3148 3148 3148 3149 3150 3151 3151 3151 3151 3150 3149
3131 3131 3132 3132 3133 3132 3133 3133 3133 3133 3133 3134 3134 3135 3135 3135 3135 3136 3138 3138 3139 3139 3139 3139 3140 3140 3141 3141 3141 3142 3143 3144 3144 3144 3145 3145 3146 3147 3147 3148 3148 3148 3147
3128 3128 3129 3130 3130 3131 3130 3131 3130 3131 3131 3131 3131 3132 3132 3132 3132 3132 3132 3133 3133 3134 3134 3134 3134 3135 3135 3136 3137 3138 3138 3139 3140 3140 3140 3141 3141 3142 3142 3143 3143 3144 3144
3126 3127 3127 3127 3127 3127 3127 3127 3127 3127 3127 3127 3127 3127 3128 3128 3128 3128 3127 3127 3127 3128 3128 3128 3128 3129 3129 3129 3131 3132 3133 3134 3135 3135 3136 3136 3136 3137 3137 3137 3138 3139 3139
3124 3124 3125 3125 3125 3125 3124 3124 3124 3123 3123 3123 3123 3123 3123 3123 3123 3123 3122 3122 3122 3122 3121 3121 3122 3123 3123 3123 3124 3125 3126 3127 3128 3130 3130 3131 3131 3132 3132 3131 3132 3133 3133
3122 3122 3123 3123 3122 3122 3122 3122 3121 3121 3120 3119 3118 3119 3118 3117 3117 3117 3117 3115 3115 3115 3116 3116 3116 3116 3116 3116 3117 3118 3118 3119 3121 3122 3123 3124 3125 3125 3125 3125 3126 3127 3126
3119 3119 3120 3120 3119 3119 3119 3119 3118 3117 3116 3116 3115 3114 3112 3112 3111 3111 3110 3109 3109 3108 3108 3108 3108 3109 3109 3109 3110 3111 3111 3111 3113 3114 3116 3116 3118 3118 3118 3119 3118 3120 3120
3116 3116 3116 3116 3116 3116 3115 3115 3114 3113 3111 3110 3109 3108 3108 3106 3105 3104 3103 3103 3102 3101 3100 3100 3100 3101 3101 3102 3103 3103 3103 3104 3104 3105 3107 3108 3110 3110 3111 3111 3110 3113 3114
3115 3115 3114 3114 3114 3113 3112 3111 3110 3110 3108 3105 3104 3103 3102 3101 3100 3098 3096 3096 3095 3095 3094 3093 3092 3093 3094 3095 3096 3095 3095 3095 3096 3097 3098 3100 3101 3103 3103 3104 3103 3102 3105
3111 3111 3111 3111 3110 3109 3108 3107 3106 3105 3104 3102 3100 3097 3096 3095 3093 3094 3093 3089 3088 3087 3086 3086 3086 3086 3086 3087 3088 3087 3087 3087 3087 3088 3090 3090 3092 3093 3094 3096 3096 3097 3093
3108 3107 3107 3106 3105 3105 3104 3103 3101 3100 3099 3097 3096 3094 3092 3088 3087 3084 3085 3087 3082 3080 3079 3080 3079 3078 3079 3079 3079 3078 3078 3079 3079 3079 3080 3081 3082 3083 3085 3086 3086 3087 3085
3103 3103 3102 3102 3101 3100 3099 3098 3096 3095 3094 3092 3090 3087 3085 3085 3083 3078 3075 3076 3075 3076 3073 3071 3071 3071 3072 3072 3071 3071 3070 3071 3071 3070 3071 3072 3072 3072 3073 3075 3076 3077 3078
3099 3098 3098 3097 3095 3094 3093 3092 3090 3089 3087 3085 3084 3082 3079 3077 3074 3072 3069 3067 3067 3066 3067 3066 3063 3063 3064 3064 3063 3063 3062 3062 3062 3062 3062 3063 3063 3063 3063 3064 3066 3067 3067
3095 3094 3092 3091 3090 3088 3086 3085 3083 3081 3079 3078 3076 3074 3073 3070 3066 3063 3061 3058 3057 3058 3058 3059 3057 3056 3056 3056 3055 3055 3055 3055 3054 3054 3054 3055 3055 3054 3054 3054 3055 3056 3056
3090 3088 3087 3085 3083 3081 3079 3077 3075 3073 3071 3069 3067 3065 3063 3061 3058 3056 3053 3051 3048 3048 3050 3050 3050 3050 3049 3048 3048 3047 3047 3047 3046 3045 3045 3045 3044 3044 3044 3044 3044 3044 3045
3084 3083 3081 3079 3076 3073 3071 3069 3067 3064 3062 3060 3058 3056 3054 3052 3049 3047 3045 3043 3041 3040 3040 3044 3043 3042 3041 3040 3040 3040 3039 3038 3038 3037 3036 3036 3036 3036 3036 3035 3035 3034 3034
3079 3077 3075 3072 3069 3066 3063 3061 3058 3056 3053 3051 3049 3047 3045 3042 3041 3039 3038 3037 3035 3033 3032 3036 3035 3035 3035 3033 3032 3032 3032 3030 3030 3029 3029 3029 3028 3028 3028 3027 3026 3026 3026
3074 3071 3069 3066 3062 3059 3056 3053 3050 3047 3044 3042 3039 3037 3036 3035 3033 3032 3031 3030 3029 3028 3027 3028 3029 3028 3027 3027 3026 3025 3024 3023 3023 3022 3022 3021 3020 3019 3019 3018 3018 3017 3016
3068 3065 3062 3059 3055 3052 3048 3045 3042 3040 3037 3033 3031 3030 3029 3027 3026 3026 3024 3024 3023 3023 3023 3022 3022 3022 3022 3021 3020 3019 3018 3016 3015 3015 3014 3014 3012 3011 3010 3009 3008 3008 3008
3061 3059 3056 3052 3049 3045 3042 3039 3035 3031 3028 3026 3025 3024 3023 3022 3021 3021 3020 3020 3019 3019 3019 3018 3017 3017 3016 3015 3014 3014 3012 3011 3010 3009 3008 3008 3005 3004 3003 3002 3001 3001 3001
3055 3053 3050 3046 3042 3039 3035 3032 3028 3025 3024 3023 3022 3021 3021 3020 3018 3018 3018 3017 3016 3015 3015 3013 3013 3012 3010 3009 3009 3009 3007 3006 3005 3004 3003 3002 3000 2997 2995 2995 2993 2995 2994
3049 3047 3043 3039 3035 3032 3028 3025 3023 3022 3021 3021 3019 3019 3019 3017 3017 3016 3015 3014 3013 3012 3011 3010 3009 3007 3006 3006 3005 3004 3003 3002 3002 3001 2999 2997 2995 2992 2990 2989 2989 2989 2990
3045 3041 3036 3033 3030 3026 3022 3021 3019 3019 3019 3018 3018 3017 3016 3015 3014 3014 3013 3011 3009 3008 3008 3007 3006 3004 3003 3002 3001 3000 3000 2999 2998 2996 2994 2992 2990 2989 2987 2985 2984 2983 2983
3039 3034 3031 3028 3024 3021 3019 3017 3016 3016 3016 3016 3016 3015 3014 3013 3012 3011 3010 3008 3007 3006 3005 3004 3003 3002 3001 2999 2998 2998 2997 2996 2994 2992 2990 2988 2986 2984 2983 2982 2980 2979 2978
3032 3029 3027 3023 3020 3017 3015 3013 3013 3013 3013 3013 3013 3013 3011 3010 3010 3009 3008 3007 3005 3004 3004 3003 3002 3000 2999 2998 2997 2995 2994 2993 2991 2989 2987 2985 2983 2981 2979 2977 2976 2974 2972
3028 3026 3021 3018 3016 3014 3011 3010 3009 3009 3010 3010 3010 3010 3008 3008 3008 3008 3007 3006 3004 3003 3002 3002 3000 2999 2997 2995 2994 2993 2991 2990 2988 2986 2983 2982 2979 2978 2976 2974 2971 2968 2966